Time,TemperatureF,DewpointF,PressureIn,WindDirection,WindDirectionDegrees,WindSpeedMPH,WindSpeedGustMPH,Humidity,HourlyPrecipIn,Conditions,Clouds,dailyrainin,SoftwareType,DateUTC
2013-07-02 00:01:00,50.0,50.0,-100.00,SSE,155,6.0,12.0,99,-99.99,,,-99.99,,2013-07-02 06:01:00,
2013-07-02 00:11:00,50.0,50.0,-100.00,SSE,155,8.0,10.0,99,-99.99,,,-99.99,,2013-07-02 06:11:00,
2013-07-02 00:43:00,49.0,49.0,-100.00,SSE,155,7.0,10.0,99,-99.99,,,-99.99,,2013-07-02 06:43:00,
2013-07-02 01:44:00,49.0,49.0,-100.00,SSE,150,6.0,7.0,99,-99.99,,,-99.99,,2013-07-02 07:44:00,
2013-07-02 02:12:00,49.0,49.0,-100.00,SSE,165,6.0,6.0,99,-99.99,,,-99.99,,2013-07-02 08:12:00,
2013-07-02 02:44:00,48.0,48.0,-100.00,South,175,5.0,6.0,99,-99.99,,,-99.99,,2013-07-02 08:44:00,
2013-07-02 03:01:00,49.0,49.0,-100.00,SSE,150,3.0,4.0,99,-99.99,,,-99.99,,2013-07-02 09:01:00,
2013-07-02 03:43:00,49.0,49.0,-100.00,South,170,2.0,2.0,99,-99.99,,,-99.99,,2013-07-02 09:43:00,
2013-07-02 03:52:00,50.0,50.0,-100.00,SW,230,2.0,3.0,99,-99.99,,,-99.99,,2013-07-02 09:52:00,
2013-07-02 04:11:00,51.0,47.0,-100.00,WNW,295,7.0,7.0,85,-99.99,,,-99.99,,2013-07-02 10:11:00,
2013-07-02 04:33:00,51.0,46.0,-100.00,WNW,300,6.0,7.0,84,-99.99,,,-99.99,,2013-07-02 10:33:00,
2013-07-02 04:43:00,50.0,46.0,-100.00,NW,305,6.0,7.0,84,-99.99,,,-99.99,,2013-07-02 10:43:00,
2013-07-02 05:42:00,50.0,46.0,-100.00,NW,320,6.0,6.0,86,-99.99,,,-99.99,,2013-07-02 11:42:00,
2013-07-02 06:11:00,51.0,47.0,-100.00,NW,325,3.0,6.0,84,-99.99,,,-99.99,,2013-07-02 12:11:00,
2013-07-02 06:43:00,54.0,48.0,-100.00,NNW,330,3.0,6.0,81,-99.99,,,-99.99,,2013-07-02 12:43:00,
2013-07-02 07:01:00,54.0,48.0,-100.00,WNW,290,6.0,6.0,78,-99.99,,,-99.99,,2013-07-02 13:01:00,
2013-07-02 07:43:00,58.0,48.0,-100.00,NNW,330,6.0,8.0,71,-99.99,,,-99.99,,2013-07-02 13:43:00,
2013-07-02 08:43:00,59.0,47.0,-100.00,NW,310,7.0,9.0,64,-99.99,,,-99.99,,2013-07-02 14:43:00,
2013-07-02 09:11:00,60.0,46.0,-100.00,NW,315,9.0,12.0,58,-99.99,,,-99.99,,2013-07-02 15:11:00,
2013-07-02 09:33:00,62.0,44.0,-100.00,NW,315,11.0,16.0,51,-99.99,,,-99.99,,2013-07-02 15:33:00,
2013-07-02 09:44:00,62.0,42.0,-100.00,NNW,335,14.0,18.0,47,-99.99,,,-99.99,,2013-07-02 15:44:00,
2013-07-02 10:12:00,64.0,39.0,-100.00,NNW,330,13.0,21.0,39,-99.99,,,-99.99,,2013-07-02 16:12:00,
2013-07-02 10:43:00,65.0,40.0,-100.00,NW,320,9.0,21.0,38,-99.99,,,-99.99,,2013-07-02 16:43:00,
2013-07-02 12:43:00,67.0,38.0,-100.00,NW,315,9.0,21.0,34,-99.99,,,-99.99,,2013-07-02 18:43:00,
2013-07-02 13:43:00,69.0,38.0,-100.00,NE,45,3.0,22.0,31,-99.99,,,-99.99,,2013-07-02 19:43:00,
2013-07-02 14:02:00,70.0,38.0,-100.00,NE,50,7.0,14.0,30,-99.99,,,-99.99,,2013-07-02 20:02:00,
2013-07-02 14:40:00,71.0,36.0,-100.00,NNE,30,9.0,13.0,28,-99.99,,,-99.99,,2013-07-02 20:40:00,
2013-07-02 14:43:00,70.0,37.0,-100.00,NNW,340,8.0,12.0,29,-99.99,,,-99.99,,2013-07-02 20:43:00,
2013-07-02 15:02:00,71.0,36.0,-100.00,NNE,30,9.0,13.0,28,-99.99,,,-99.99,,2013-07-02 21:02:00,
2013-07-02 15:11:00,71.0,36.0,-100.00,NNE,30,9.0,13.0,28,-99.99,,,-99.99,,2013-07-02 21:11:00,
2013-07-02 15:22:00,71.0,36.0,-100.00,NNE,30,9.0,13.0,28,-99.99,,,-99.99,,2013-07-02 21:22:00,
2013-07-02 15:33:00,71.0,36.0,-100.00,NNE,30,9.0,13.0,28,-99.99,,,-99.99,,2013-07-02 21:33:00,